Flag for Canada Weather past 2 weeks in Churchill, Manitoba, Canada

Now
57 °F

Passing clouds.


Feels Like: 54 °F
Forecast: 52 / 66 °F
Wind: 15 mph from West

Location: Churchill

Current Time: Aug 28, 2014 at 10:11:49 AM

Latest Report: Aug 28, 2014 at 9:00 AM


Visibility: 15 mi

Pressure: 29.52 "Hg

Humidity: 94%

Dew point: 55 °F

Location of ChurchillLocation

Historic Weather in Churchill — Graph

°F

Churchill temperature yesterday

Maximum temperature yesterday: 64 °F (at 3:00 PM)
Minimum temperature yesterday: 45 °F (at 5:00 AM)
Average temperature yesterday: 56 °F

Past Weeks' High & Low Weather Summary

 TemperatureHumidityPressure
High79 °F (Aug 14, 2:00 PM)100% (Aug 20, 2:00 AM)30.53 "Hg (Aug 20, 2:00 AM)
Low39 °F (Aug 24, 4:00 AM)38% (Aug 13, 1:00 PM)29.50 "Hg (Aug 17, 7:00 PM)
Average52 °F80%29.96 "Hg
* Reported Aug 13 9:00 AM — Aug 28 9:00 AM, Churchill, Weather by CustomWeather, © 2014

Note: Actual official high and low records may vary slightly from our data, if they occured in-between our weather recording intervals... More about our weather records

Advertising

Churchill weather history for previous 24 hours

 ConditionsComfort  
Time TempWeatherWind HumidityBarometerVisibility
9:00 AM
Aug 28
57 °FPassing clouds.15 mph94%29.52 "Hg15 mi
8:00 AM55 °FScattered clouds.10 mph100%29.53 "Hg15 mi
7:00 AM55 °FPassing clouds.10 mph94%29.52 "Hg15 mi
6:00 AM54 °FPassing clouds.8 mph100%29.52 "Hg15 mi
5:00 AM55 °FPartly cloudy.7 mph100%29.52 "Hg15 mi
4:00 AM57 °FFog.7 mph94%29.52 "Hg5 mi
3:00 AM57 °FPartly cloudy.6 mph100%29.51 "Hg15 mi
2:00 AM59 °FPartly cloudy.6 mph94%29.51 "Hg15 mi
1:00 AM59 °FThunderstorms. Mostly cloudy.7 mph100%29.54 "Hg10 mi
12:00 AM63 °FOvercast.12 mph77%29.53 "Hg15 mi
11:00 PM
Aug 27
61 °FPartly cloudy.12 mph83%29.56 "Hg15 mi
10:00 PM61 °FMostly cloudy.12 mph83%29.59 "Hg15 mi
9:00 PM61 °FBroken clouds.9 mph77%29.62 "Hg15 mi
8:00 PM63 °FPartly sunny.9 mph73%29.64 "Hg15 mi
7:00 PM63 °FPartly sunny.10 mph73%29.66 "Hg15 mi
6:00 PM64 °FMostly cloudy.10 mph68%29.67 "Hg15 mi
5:00 PM64 °FPartly sunny.13 mph64%29.68 "Hg15 mi
4:00 PM61 °FSprinkles. Mostly cloudy.9 mph77%29.70 "Hg15 mi
3:00 PM64 °FPartly sunny.15 mph60%29.72 "Hg15 mi
2:00 PM63 °FBroken clouds.17 mph59%29.72 "Hg15 mi
1:00 PM61 °FBroken clouds.22 mph63%29.74 "Hg15 mi
12:00 PM57 °FBroken clouds.23 mph67%29.76 "Hg15 mi
11:00 AM55 °FPartly sunny.23 mph72%29.78 "Hg15 mi
Weather by CustomWeather, © 2014

See weather overviewHow to use our weather pages